When you browse on this site, cookies collect data to enhance your experience and personalize the content and advertising you see.
Visit our Privacy Policy to learn more. By continuing to use the site, you agree to this use of cookies and data.
  • En España
  • Lista de países
  • Para 7 días
  • Temperatura del agua
  • El tiempo en el mapa
  • Informadores
  • user-avatar
    Iniciar sesión

    Tiempo cada hora Konakry

    Hoy, 28 Febrero, Viernes

    Tiempo Temperatura Precipitaciones Viento Presión Humedad
    00:00 +26°C° 0 mm 1 mps 755 mmHg 87%
    01:00 +26°C° 0 mm 2 mps 755 mmHg 88%
    02:00 +26°C° 0 mm 2 mps 755 mmHg 88%
    03:00 +25°C° 0 mm 2 mps 755 mmHg 89%
    04:00 +25°C° 0 mm 3 mps 755 mmHg 89%
    05:00 +25°C° 0 mm 4 mps 755 mmHg 89%
    06:00 +26°C° 0 mm 3 mps 756 mmHg 82%
    07:00 +28°C° 0 mm 3 mps 756 mmHg 74%
    08:00 +29°C° 0 mm 3 mps 757 mmHg 66%
    09:00 +31°C° 0 mm 3 mps 756 mmHg 58%
    10:00 +34°C° 0 mm 3 mps 756 mmHg 49%
    11:00 +36°C° 0 mm 3 mps 756 mmHg 41%
    12:00 +36°C° 0 mm 4 mps 755 mmHg 43%
    13:00 +36°C° 0 mm 5 mps 754 mmHg 44%
    14:00 +35°C° 0 mm 6 mps 753 mmHg 46%
    15:00 +34°C° 0 mm 6 mps 753 mmHg 50%
    16:00 +33°C° 0 mm 6 mps 753 mmHg 55%
    17:00 +32°C° 0 mm 5 mps 753 mmHg 59%
    18:00 +30°C° 0 mm 4 mps 753 mmHg 66%
    19:00 +28°C° 0 mm 4 mps 754 mmHg 73%
    20:00 +27°C° 0 mm 3 mps 755 mmHg 80%
    21:00 +27°C° 0 mm 3 mps 755 mmHg 82%
    22:00 +27°C° 0 mm 3 mps 755 mmHg 83%
    23:00 +26°C° 0 mm 3 mps 756 mmHg 84%

    Mañana, 29 Febrero, Sábado

    Tiempo Temperatura Precipitaciones Viento Presión Humedad
    00:00 +26°C° 0 mm 3 mps 755 mmHg 85%
    01:00 +26°C° 0 mm 3 mps 755 mmHg 86%
    02:00 +25°C° 0 mm 3 mps 754 mmHg 87%
    03:00 +25°C° 0 mm 3 mps 754 mmHg 87%
    04:00 +25°C° 0 mm 3 mps 754 mmHg 88%
    05:00 +24°C° 0 mm 3 mps 754 mmHg 89%
    06:00 +26°C° 0 mm 3 mps 755 mmHg 81%
    07:00 +27°C° 0 mm 2 mps 755 mmHg 74%
    08:00 +29°C° 0 mm 1 mps 756 mmHg 67%
    09:00 +30°C° 0 mm 2 mps 755 mmHg 60%
    10:00 +32°C° 0 mm 2 mps 755 mmHg 53%
    11:00 +35°C° 0 mm 2 mps 755 mmHg 46%
    12:00 +35°C° 0 mm 3 mps 754 mmHg 47%
    13:00 +35°C° 0 mm 4 mps 753 mmHg 48%
    14:00 +35°C° 0 mm 5 mps 753 mmHg 48%
    15:00 +34°C° 0 mm 5 mps 752 mmHg 53%
    16:00 +32°C° 0 mm 5 mps 752 mmHg 57%
    17:00 +30°C° 0 mm 5 mps 752 mmHg 62%
    18:00 +29°C° 0 mm 5 mps 753 mmHg 69%
    19:00 +28°C° 0 mm 4 mps 753 mmHg 76%
    20:00 +27°C° 0 mm 3 mps 754 mmHg 83%
    21:00 +26°C° 0 mm 3 mps 754 mmHg 83%
    22:00 +26°C° 0 mm 3 mps 754 mmHg 84%
    23:00 +26°C° 0 mm 2 mps 754 mmHg 84%

    Pasado mañana, 1 Marzo, Domingo

    Tiempo Temperatura Precipitaciones Viento Presión Humedad
    00:00 +26°C° 0 mm 2 mps 754 mmHg 85%
    01:00 +25°C° 0 mm 2 mps 754 mmHg 85%
    02:00 +25°C° 0 mm 1 mps 754 mmHg 85%
    03:00 +25°C° 0 mm 2 mps 754 mmHg 85%
    04:00 +25°C° 0 mm 2 mps 754 mmHg 86%
    05:00 +24°C° 0 mm 2 mps 754 mmHg 86%
    06:00 +26°C° 0 mm 2 mps 754 mmHg 80%
    07:00 +27°C° 0 mm 2 mps 755 mmHg 73%
    08:00 +29°C° 0 mm 1 mps 755 mmHg 67%
    09:00 +30°C° 0 mm 1 mps 755 mmHg 59%
    10:00 +32°C° 0 mm 2 mps 755 mmHg 51%
    11:00 +35°C° 0 mm 2 mps 755 mmHg 44%
    12:00 +35°C° 0 mm 3 mps 754 mmHg 44%
    13:00 +35°C° 0 mm 4 mps 753 mmHg 45%
    14:00 +35°C° 0 mm 5 mps 752 mmHg 45%
    15:00 +34°C° 0 mm 5 mps 752 mmHg 50%
    16:00 +33°C° 0 mm 5 mps 752 mmHg 54%
    17:00 +32°C° 0 mm 5 mps 752 mmHg 59%
    18:00 +29°C° 0 mm 5 mps 753 mmHg 66%
    19:00 +28°C° 0 mm 4 mps 753 mmHg 74%
    20:00 +27°C° 0 mm 4 mps 754 mmHg 81%
    21:00 +26°C° 0 mm 3 mps 754 mmHg 82%
    22:00 +26°C° 0 mm 2 mps 754 mmHg 82%
    23:00 +26°C° 0 mm 1 mps 755 mmHg 83%

    2 Marzo, Lunes

    Tiempo Temperatura Precipitaciones Viento Presión Humedad
    00:00 +26°C° 0 mm 1 mps 754 mmHg 83%
    01:00 +25°C° 0 mm 1 mps 754 mmHg 83%
    02:00 +25°C° 0 mm 1 mps 754 mmHg 84%
    03:00 +25°C° 0 mm 1 mps 754 mmHg 85%
    04:00 +24°C° 0 mm 1 mps 754 mmHg 86%
    05:00 +24°C° 0 mm 2 mps 754 mmHg 87%
    06:00 +26°C° 0 mm 2 mps 755 mmHg 80%
    07:00 +27°C° 0 mm 2 mps 755 mmHg 73%
    08:00 +29°C° 0 mm 2 mps 756 mmHg 66%
    09:00 +31°C° 0 mm 2 mps 756 mmHg 59%
    10:00 +32°C° 0 mm 2 mps 756 mmHg 51%
    11:00 +35°C° 0 mm 2 mps 756 mmHg 43%
    12:00 +35°C° 0 mm 3 mps 755 mmHg 44%
    13:00 +35°C° 0 mm 4 mps 754 mmHg 45%
    14:00 +35°C° 0 mm 5 mps 753 mmHg 46%
    15:00 +34°C° 0 mm 5 mps 753 mmHg 50%
    16:00 +33°C° 0 mm 6 mps 753 mmHg 55%
    17:00 +32°C° 0 mm 6 mps 753 mmHg 59%
    18:00 +29°C° 0 mm 5 mps 754 mmHg 66%
    19:00 +28°C° 0 mm 4 mps 754 mmHg 73%
    20:00 +27°C° 0 mm 3 mps 755 mmHg 80%
    21:00 +26°C° 0 mm 3 mps 755 mmHg 81%
    22:00 +26°C° 0 mm 2 mps 755 mmHg 82%
    23:00 +26°C° 0 mm 2 mps 756 mmHg 83%

    3 Marzo, Martes

    Tiempo Temperatura Precipitaciones Viento Presión Humedad
    00:00 +26°C° 0 mm 2 mps 755 mmHg 84%
    01:00 +25°C° 0 mm 2 mps 755 mmHg 85%
    02:00 +25°C° 0 mm 2 mps 754 mmHg 86%
    03:00 +25°C° 0 mm 2 mps 755 mmHg 87%
    04:00 +24°C° 0 mm 2 mps 755 mmHg 87%
    05:00 +24°C° 0 mm 2 mps 755 mmHg 87%
    06:00 +26°C° 0 mm 2 mps 755 mmHg 80%
    07:00 +27°C° 0 mm 2 mps 756 mmHg 72%
    08:00 +29°C° 0 mm 2 mps 756 mmHg 65%
    09:00 +30°C° 0 mm 2 mps 756 mmHg 58%
    10:00 +33°C° 0 mm 3 mps 756 mmHg 51%
    11:00 +35°C° 0 mm 3 mps 756 mmHg 43%
    12:00 +35°C° 0 mm 4 mps 755 mmHg 45%
    13:00 +34°C° 0 mm 5 mps 754 mmHg 47%
    14:00 +34°C° 0 mm 6 mps 753 mmHg 49%
    15:00 +33°C° 0 mm 6 mps 753 mmHg 53%
    16:00 +32°C° 0 mm 6 mps 753 mmHg 58%
    17:00 +32°C° 0 mm 6 mps 753 mmHg 63%
    18:00 +29°C° 0 mm 5 mps 754 mmHg 70%
    19:00 +28°C° 0 mm 4 mps 754 mmHg 76%
    20:00 +27°C° 0 mm 3 mps 755 mmHg 83%
    21:00 +26°C° 0 mm 3 mps 755 mmHg 84%
    22:00 +26°C° 0 mm 2 mps 756 mmHg 85%
    23:00 +26°C° 0 mm 2 mps 756 mmHg 86%

    4 Marzo, Miércoles

    Tiempo Temperatura Precipitaciones Viento Presión Humedad
    00:00 +25°C° 0 mm 2 mps 756 mmHg 87%
    01:00 +25°C° 0 mm 1 mps 755 mmHg 87%
    02:00 +25°C° 0 mm 1 mps 755 mmHg 88%
    03:00 +24°C° 0 mm 1 mps 755 mmHg 88%
    04:00 +24°C° 0 mm 2 mps 755 mmHg 88%
    05:00 +24°C° 0 mm 2 mps 755 mmHg 87%
    06:00 +26°C° 0 mm 2 mps 756 mmHg 81%
    07:00 +27°C° 0 mm 2 mps 756 mmHg 75%
    08:00 +29°C° 0 mm 3 mps 757 mmHg 69%
    09:00 +31°C° 0 mm 3 mps 756 mmHg 60%
    10:00 +34°C° 0 mm 3 mps 756 mmHg 52%
    11:00 +36°C° 0 mm 3 mps 756 mmHg 44%
    12:00 +35°C° 0 mm 4 mps 755 mmHg 46%
    13:00 +35°C° 0 mm 5 mps 754 mmHg 48%
    14:00 +34°C° 0 mm 6 mps 753 mmHg 50%
    15:00 +34°C° 0 mm 6 mps 753 mmHg 53%
    16:00 +33°C° 0 mm 5 mps 753 mmHg 56%
    17:00 +32°C° 0 mm 5 mps 753 mmHg 59%
    18:00 +30°C° 0 mm 5 mps 754 mmHg 66%
    19:00 +28°C° 0 mm 4 mps 754 mmHg 74%
    20:00 +27°C° 0 mm 3 mps 754 mmHg 81%
    21:00 +26°C° 0 mm 2 mps 755 mmHg 81%
    22:00 +26°C° 0 mm 2 mps 755 mmHg 82%
    23:00 +26°C° 0 mm 1 mps 756 mmHg 82%
    Mostrar más